Location: Gull Harbor
(47.1000°N, 122.9000°W)
Time: 03:17:58
(UTC-07:00)

Envisat - Visible Passes

Search period start: 28 April 2017 00:00
Search period end: 08 May 2017 00:00
Orbit: 764 x 766 km, 98.2° (Epoch: 25 April)

Date Brightness Start Highest point End Pass type
(mag) Time Alt. Az. Time Alt. Az. Time Alt. Az.
28 Apr 3.9 21:39:41 10° S 21:44:35 48° W 21:49:31 10° NNW visible
29 Apr 3.0 21:02:45 10° SSE 21:07:49 83° ENE 21:12:56 10° NNW visible
29 Apr 5.6 22:44:54 10° WSW 22:47:29 14° W 22:50:05 10° WNW visible
30 Apr 4.8 22:06:01 10° SSW 22:10:23 29° W 22:14:47 10° NW visible
01 May 3.5 21:28:28 10° S 21:33:29 60° W 21:38:31 10° NNW visible
02 May 3.1 20:51:44 10° SSE 20:56:46 67° ENE 21:01:50 10° N visible
02 May 5.4 22:32:57 10° SW 22:36:17 17° W 22:39:37 10° NW visible
03 May 4.4 21:54:36 10° SSW 21:59:14 35° W 22:03:54 10° NNW visible
04 May 3.2 21:17:19 10° S 21:22:23 74° WSW 21:27:30 10° NNW visible
05 May 5.2 22:21:14 10° SW 22:25:05 21° W 22:28:57 10° NW visible
06 May 4.1 21:43:16 10° S 21:48:05 44° W 21:52:58 10° NNW visible
07 May 3.1 21:06:13 10° SSE 21:11:18 89° ENE 21:16:26 10° NNW visible
07 May 5.6 22:48:52 10° WSW 22:51:03 13° W 22:53:14 10° WNW visible
